N0TOA-13 Weather Reports


time (UTC)temp
C
wind
direction
speed
KPH
gust
KPH
rain 1hr
cm
rain 24hr
cm
rain mn
cm
humidity
%
barometer
mb
20260906214504 32 99 3.2 11.3 0.00 0.00 0.00 34 1019.9
20260906214005 32 43 1.6 11.3 0.00 0.00 0.00 32 994.1
20260906213005 32 322 1.6 11.3 0.00 0.00 0.00 34 994.2
20260906211454 32 34 3.2 11.3 0.00 0.00 0.00 32 1020.1
20260906211005 32 113 1.6 11.3 0.00 0.00 0.00 34 994.4
20260906210005 32 71 1.6 8.0 0.00 0.00 0.00 34 994.5
20260906205005 32 120 1.6 8.0 0.00 0.00 0.00 34 994.5
20260906204454 32 15 1.6 8.0 0.00 0.00 0.00 32 1020.4
20260906204005 32 21 1.6 8.0 0.00 0.00 0.00 34 994.7
20260906203005 32 80 3.2 8.0 0.00 0.00 0.00 36 994.8
20260906202954 32 89 3.2 8.0 0.00 0.00 0.00 32 1020.7
20260906202005 32 95 1.6 8.0 0.00 0.00 0.00 36 994.8
20260906201454 32 59 0.0 9.7 0.00 0.00 0.00 32 1020.7
20260906201005 32 93 1.6 9.7 0.00 0.00 0.00 36 994.9
20260906200005 31 107 3.2 11.3 0.00 0.00 0.00 36 994.9
20260906195005 31 26 3.2 8.0 0.00 0.00 0.00 36 995.1
20260906194005 31 22 3.2 11.3 0.00 0.00 0.00 36 995.2
20260906193004 31 37 1.6 8.0 0.00 0.00 0.00 46 995.3
20260906192954 31 106 1.6 8.0 0.00 0.00 0.00 34 1021.2
20260906191454 31 68 1.6 4.8 0.00 0.00 0.00 35 1021.5
20260906191004 31 80 1.6 4.8 0.00 0.00 0.00 46 995.6
20260906190005 30 358 1.6 11.3 0.00 0.00 0.00 46 995.7
20260906185954 30 263 1.6 11.3 0.00 0.00 0.00 35 1021.7
20260906185005 30 357 1.6 4.8 0.00 0.00 0.00 46 995.9
20260906184454 30 348 1.6 8.0 0.00 0.00 0.00 36 1021.9
20260906183005 29 353 1.6 4.8 0.00 0.00 0.00 53 996.2
20260906182005 28 352 1.6 4.8 0.00 0.00 0.00 53 996.5
20260906181454 28 91 1.6 8.0 0.00 0.00 0.00 40 1022.4
20260906181004 27 349 1.6 8.0 0.00 0.00 0.00 53 996.7
20260906180005 27 358 3.2 4.8 0.00 0.00 0.00 53 996.8
20260906175954 27 341 3.2 8.0 0.00 0.00 0.00 42 1022.7
20260906175005 26 48 1.6 4.8 0.00 0.00 0.00 53 996.9
20260906174454 25 2 1.6 9.7 0.00 0.00 0.00 48 1022.9
20260906174006 25 10 1.6 9.7 0.00 0.00 0.00 53 997.1
20260906173004 25 85 1.6 8.0 0.00 0.00 0.00 61 997.2
20260906172004 24 34 0.0 4.8 0.00 0.00 0.00 61 997.3
20260906171454 24 43 1.6 4.8 0.00 0.00 0.00 51 1023.3
20260906171005 23 341 1.6 4.8 0.00 0.00 0.00 61 997.4
20260906170004 23 33 1.6 9.7 0.00 0.00 0.00 61 997.5
20260906165954 23 73 1.6 9.7 0.00 0.00 0.00 54 1023.4
20260906165005 23 348 1.6 8.0 0.00 0.00 0.00 61 997.6
20260906164454 22 161 1.6 9.7 0.00 0.00 0.00 56 1023.5
20260906164005 22 266 1.6 9.7 0.00 0.00 0.00 61 997.6
20260906163004 22 344 1.6 8.0 0.00 0.00 0.00 70 997.6
20260906162954 22 335 1.6 8.0 0.00 0.00 0.00 58 1023.5
20260906162005 21 326 1.6 4.8 0.00 0.00 0.00 70 997.6
20260906161454 21 350 1.6 4.8 0.00 0.00 0.00 63 1023.5
20260906161005 21 354 3.2 4.8 0.00 0.00 0.00 70 997.6
20260906160005 21 332 0.0 8.0 0.00 0.00 0.00 70 997.6
20260906155954 21 297 0.0 8.0 0.00 0.00 0.00 65 1023.5
20260906155005 20 29 1.6 3.2 0.00 0.00 0.00 70 997.7
20260906154453 20 310 1.6 4.8 0.00 0.00 0.00 68 1023.6
20260906153005 20 335 3.2 11.3 0.00 0.00 0.00 74 997.8
20260906152954 20 319 3.2 11.3 0.00 0.00 0.00 70 1023.7
20260906151454 19 355 3.2 8.0 0.00 0.00 0.00 73 1023.8
20260906151005 19 291 1.6 4.8 0.00 0.00 0.00 74 997.9
20260906150005 19 332 1.6 9.7 0.00 0.00 0.00 74 997.8
20260906145954 19 327 1.6 8.0 0.00 0.00 0.00 72 1023.7
20260906144005 18 246 1.6 3.2 0.00 0.00 0.00 74 997.8
20260906142954 18 337 1.6 4.8 0.00 0.00 0.00 76 1023.6
20260906142004 17 325 1.6 4.8 0.00 0.00 0.00 77 997.9
20260906141453 17 312 1.6 8.0 0.00 0.00 0.00 77 1023.7
20260906141005 17 319 3.2 8.0 0.00 0.00 0.00 77 997.9
20260906140005 17 289 1.6 3.2 0.00 0.00 0.00 77 997.8
20260906135954 17 283 1.6 3.2 0.00 0.00 0.00 78 1023.7
20260906135005 16 308 1.6 3.2 0.00 0.00 0.00 77 997.8
20260906134004 15 321 0.0 1.6 0.00 0.00 0.00 77 997.6
20260906133005 15 297 0.0 1.6 0.00 0.00 0.00 67 997.6
20260906132004 15 346 1.6 1.6 0.00 0.00 0.00 67 997.4
20260906131453 15 340 1.6 3.2 0.00 0.00 0.00 78 1023.3
20260906131005 15 348 1.6 3.2 0.00 0.00 0.00 67 997.5
20260906125956 15 203 1.6 3.2 0.00 0.00 0.00 81 1023.4
20260906125005 15 0 1.6 1.6 0.00 0.00 0.00 67 997.4
20260906124005 15 349 0.0 1.6 0.00 0.00 0.00 67 997.4
20260906123005 15 357 3.2 3.2 0.00 0.00 0.00 72 997.4
20260906122005 15 328 0.0 4.8 0.00 0.00 0.00 72 997.2
20260906121005 15 0 0.0 3.2 0.00 0.00 0.00 72 997.2
20260906120005 15 338 3.2 3.2 0.00 0.00 0.00 72 997.2
20260906115005 15 0 1.6 3.2 0.00 0.00 0.00 72 997.2
20260906114005 15 349 1.6 3.2 0.00 0.00 0.00 72 997.2
20260906112005 16 345 1.6 3.2 0.00 0.00 0.00 67 997.1
20260906111005 16 358 0.0 1.6 0.00 0.00 0.00 67 997.1
20260906110005 16 47 0.0 3.2 0.00 0.00 0.00 67 997.1
20260906105005 16 0 0.0 1.6 0.00 0.00 0.00 67 997.0
20260906104005 16 0 0.0 1.6 0.00 0.00 0.00 67 996.8
20260906103005 17 291 0.0 1.6 0.00 0.00 0.00 67 996.7
20260906102004 17 0 0.0 1.6 0.00 0.00 0.00 67 996.7
20260906101005 17 0 0.0 0.0 0.00 0.00 0.00 67 996.8
20260906100004 17 0 0.0 1.6 0.00 0.00 0.00 67 996.8
20260906095005 17 0 0.0 1.6 0.00 0.00 0.00 67 996.7
20260906094005 17 0 0.0 0.0 0.00 0.00 0.00 67 996.7
20260906093005 17 339 1.6 1.6 0.00 0.00 0.00 58 996.7
20260906092004 17 0 0.0 1.6 0.00 0.00 0.00 58 996.7
20260906091005 17 346 0.0 0.0 0.00 0.00 0.00 58 996.7
20260906090005 17 0 0.0 1.6 0.00 0.00 0.00 58 996.6
20260906085005 18 0 0.0 0.0 0.00 0.00 0.00 58 996.5
20260906084005 18 0 0.0 1.6 0.00 0.00 0.00 58 996.5
20260906083005 18 14 1.6 3.2 0.00 0.00 0.00 72 996.6
20260906082005 18 8 1.6 3.2 0.00 0.00 0.00 72 996.7
20260906081005 18 0 0.0 1.6 0.00 0.00 0.00 72 996.7
20260906080005 18 0 1.6 1.6 0.00 0.00 0.00 72 996.8
20260906075005 19 0 0.0 1.6 0.00 0.00 0.00 72 996.8
20260906074004 20 358 0.0 4.8 0.00 0.00 0.00 72 996.6
20260906072005 20 326 0.0 3.2 0.00 0.00 0.00 54 996.3
20260906071005 21 0 0.0 3.2 0.00 0.00 0.00 54 996.2
20260906070005 21 343 1.6 4.8 0.00 0.00 0.00 63 996.1
20260906064005 21 350 1.6 9.7 0.00 0.00 0.00 63 996.1
20260906063005 21 339 4.8 8.0 0.00 0.00 0.00 34 996.1
20260906062005 21 341 0.0 4.8 0.00 0.00 0.00 34 996.1
20260906061005 21 14 1.6 4.8 0.00 0.00 0.00 34 996.3
20260906060005 21 350 3.2 16.1 0.00 0.00 0.00 35 996.6
20260906055005 22 353 1.6 11.3 0.00 0.00 0.00 35 996.9
20260906054005 23 255 1.6 8.0 0.00 0.00 0.00 35 996.8
20260906053005 23 336 3.2 9.7 0.00 0.00 0.00 27 996.4
20260906052005 22 341 4.8 9.7 0.00 0.00 0.00 27 996.4
20260906050005 22 332 0.0 3.2 0.00 0.00 0.00 27 996.6
20260906045005 22 0 0.0 1.6 0.00 0.00 0.00 27 996.6
20260906044005 23 358 0.0 1.6 0.00 0.00 0.00 27 996.8
20260906043005 23 2 0.0 3.2 0.00 0.00 0.00 28 996.8
20260906042005 23 5 0.0 3.2 0.00 0.00 0.00 28 996.8
20260906041005 24 17 0.0 3.2 0.00 0.00 0.00 28 996.8
20260906040005 24 0 1.6 8.0 0.00 0.00 0.00 28 996.6
20260906035005 24 0 1.6 3.2 0.00 0.00 0.00 28 996.7
20260906034005 24 0 0.0 3.2 0.00 0.00 0.00 28 996.4
20260906033005 25 353 0.0 3.2 0.00 0.00 0.00 29 996.0
20260906032005 25 17 1.6 4.8 0.00 0.00 0.00 29 995.9
20260906031005 25 353 1.6 4.8 0.00 0.00 0.00 29 995.8
20260906030005 25 350 1.6 4.8 0.00 0.00 0.00 29 995.7
20260906024005 25 12 1.6 4.8 0.00 0.00 0.00 29 995.5
20260906023005 26 358 0.0 3.2 0.00 0.00 0.00 26 995.5
20260906022005 26 359 1.6 3.2 0.00 0.00 0.00 26 995.5
20260906020005 26 317 1.6 3.2 0.00 0.00 0.00 26 995.3
20260906015005 26 351 0.0 3.2 0.00 0.00 0.00 26 995.1
20260906014005 27 0 0.0 1.6 0.00 0.00 0.00 26 995.0
20260906013005 27 0 0.0 0.0 0.00 0.00 0.00 18 994.8
20260906012005 28 0 0.0 0.0 0.00 0.00 0.00 18 994.8
20260906011005 29 0 0.0 0.0 0.00 0.00 0.00 18 994.8
20260906010004 30 3 0.0 4.8 0.00 0.00 0.00 18 994.8
20260906005005 30 153 1.6 4.8 0.00 0.00 0.00 18 994.9
20260906004005 31 285 0.0 3.2 0.00 0.00 0.00 18 994.8
20260906003005 32 0 0.0 3.2 0.00 0.00 0.00 18 994.8
20260906002005 32 44 1.6 3.2 0.00 0.00 0.00 18 994.7
20260905235005 35 0 1.6 3.2 0.00 0.00 0.00 18 994.6
20260905234005 35 0 1.6 1.6 0.00 0.00 0.00 18 994.6
20260905233005 35 274 1.6 3.2 0.00 0.00 0.00 19 994.6
20260905232005 35 328 1.6 3.2 0.00 0.00 0.00 19 994.5
20260905231004 35 324 1.6 8.0 0.00 0.00 0.00 19 994.5
20260905230005 34 345 1.6 8.0 0.00 0.00 0.00 19 994.6
20260905225005 34 0 1.6 3.2 0.00 0.00 0.00 19 994.5
20260905224005 34 0 1.6 11.3 0.00 0.00 0.00 19 994.4
20260905223005 33 332 0.0 9.7 0.00 0.00 0.00 20 994.6
20260905222005 33 210 1.6 8.0 0.00 0.00 0.00 20 994.6
20260905221005 33 79 0.0 9.7 0.00 0.00 0.00 20 994.6
20260905220004 33 318 0.0 3.2 0.00 0.00 0.00 20 994.7
20260905215005 33 336 1.6 8.0 0.00 0.00 0.00 20 994.8